This demonstration page uses our WeatherBlox Daily Observations layout. Learn more.

Left ArrowRight Arrow

38.89511, -77.03637

Hourly Observations for August 2, 2021

Temp ( °F °C ) Dew Point ( °F °C ) Humidity (%) Winds ( mph kmh ) Pressure ( in mb ) Visibility ( mi km ) Precip ( " mm )
12:52 am 00:52 Partly Cloudy 70 21.1 62 16.7 76 76 NNW 9 15 29.92 1013 10 16 N/A
1:52 am 01:52 Partly Cloudy 69 20.6 62 16.7 78 78 NNW 10 17 29.91 1013 10 16 N/A
2:52 am 02:52 Mostly Clear 68 20 61 16.1 78 78 NNW 7 11 29.91 1013 10 16 N/A
3:52 am 03:52 Mostly Clear 67 19.4 60 15.6 79 79 NW 8 13 29.93 1014 10 16 N/A
4:52 am 04:52 Mostly Clear 67 19.4 59 15 76 76 NW 9 15 29.95 1014 10 16 N/A
5:52 am 05:52 Mostly Clear 67 19.4 57 13.9 71 71 NW 8 13 29.97 1015 10 16 N/A
6:52 am 06:52 Mostly Sunny 67 19.4 57 13.9 71 71 NW 8 13 29.99 1016 10 16 N/A
7:52 am 07:52 Sunny 69 20.6 58 14.4 68 68 WNW 8 13 30.02 1017 10 16 N/A
8:52 am 08:52 Sunny 72 22.2 58 14.4 61 61 NNW 12 19 30.03 1017 10 16 N/A
9:52 am 09:52 Sunny 74 23.3 58 14.4 57 57 NNW 13 20 30.04 1017 10 16 N/A
10:52 am 10:52 Mostly Sunny 75 23.9 58 14.4 55 55 NNW 14 22 30.05 1018 10 16 N/A
11:52 am 11:52 Partly Cloudy 78 25.6 58 14.4 50 50 NW 7 11 30.05 1018 10 16 N/A
12:52 pm 12:52 Mostly Cloudy 78 25.6 57 13.9 48 48 NNW 9 15 30.05 1018 10 16 N/A
1:52 pm 13:52 Partly Cloudy 80 26.7 57 13.9 45 45 WNW 7 11 30.04 1017 10 16 N/A
2:52 pm 14:52 Partly Cloudy 81 27.2 57 13.9 44 44 VRB 7 11 30.04 1017 10 16 N/A
3:52 pm 15:52 Mostly Cloudy 83 28.3 56 13.3 40 40 NW 8 13 30.04 1017 10 16 N/A
4:52 pm 16:52 Mostly Cloudy 82 27.8 55 12.8 40 40 NNE 7 11 30.04 1017 10 16 N/A
5:52 pm 17:52 Partly Cloudy 82 27.8 55 12.8 40 40 N 12 19 30.04 1017 10 16 N/A
6:52 pm 18:52 Partly Cloudy 80 26.7 56 13.3 44 44 NE 9 15 30.04 1017 10 16 N/A
7:52 pm 19:52 Mostly Sunny 78 25.6 54 12.2 43 43 NNE 9 15 30.05 1018 10 16 N/A
8:52 pm 20:52 Mostly Clear 76 24.4 54 12.2 47 47 ENE 6 9 30.06 1018 10 16 N/A
9:52 pm 21:52 Mostly Clear 74 23.3 60 15.6 62 62 SE 7 11 30.09 1019 10 16 N/A
10:52 pm 22:52 Mostly Clear 72 22.2 60 15.6 66 66 SE 6 9 30.10 1019 10 16 N/A
11:52 pm 23:52 Mostly Cloudy 73 22.8 59 15 62 62 N N/A 30.10 1019 10 16 N/A

Powered by AerisWeather